This is the latest recevied weather packets stored in our database for station/object KB3FCJ-2. If no packets are shown the sender has not sent any weather packets the latest 10 day(s).
| Time | Temp. | Humidity | Pressure | Rain* | Wind** | Luminosity | Snow |
|---|---|---|---|---|---|---|---|
| 1777930991 | 22.22° C | 41% | 944.6 hPa | 0 mm | - | - | - |
| 1777930391 | 22.78° C | 42% | 944.6 hPa | 0 mm | - | - | - |
| 1777929791 | 22.78° C | 42% | 944.6 hPa | 0 mm | - | - | - |
| 1777928952 | 22.78° C | 41% | 944.6 hPa | 0 mm | - | - | - |
| 1777928352 | 23.33° C | 40% | 944.6 hPa | 0 mm | - | - | - |
| 1777927752 | 23.33° C | 39% | 944.6 hPa | 0 mm | - | - | - |
| 1777927152 | 23.89° C | 39% | 944.6 hPa | 0 mm | - | - | - |
| 1777926313 | 22.78° C | 41% | 944.6 hPa | 0 mm | - | - | - |
| 1777925714 | 23.33° C | 40% | 944.6 hPa | 0 mm | - | - | - |
| 1777925113 | 22.22° C | 41% | 944.6 hPa | 0 mm | - | - | - |
| 1777924513 | 22.22° C | 42% | 944.6 hPa | 0 mm | - | - | - |
| 1777923676 | 22.22° C | 42% | 944.6 hPa | 0 mm | - | - | - |
| 1777923076 | 22.78° C | 41% | 944.6 hPa | 0 mm | - | - | - |
| 1777922476 | 22.22° C | 43% | 944.6 hPa | 0 mm | - | - | - |
| 1777921876 | 21.67° C | 41% | 944.6 hPa | 0 mm | - | - | - |
| 1777921040 | 21.67° C | 44% | 944.6 hPa | 0 mm | - | - | - |
| 1777920439 | 21.67° C | 45% | 944.6 hPa | 0 mm | - | - | - |
| 1777919839 | 22.22° C | 41% | 944.6 hPa | 0 mm | - | - | - |
| 1777919239 | 22.22° C | 43% | 944.6 hPa | 0 mm | - | - | - |
| 1777918402 | 21.67° C | 45% | 944.6 hPa | 0 mm | - | - | - |
| 1777917803 | 21.67° C | 44% | 944.6 hPa | 0 mm | - | - | - |
| 1777917202 | 21.11° C | 43% | 944.6 hPa | 0 mm | - | - | - |
| 1777916602 | 20.56° C | 47% | 944.6 hPa | 0 mm | - | - | - |
| 1777915773 | 20.56° C | 43% | 944.6 hPa | 0 mm | - | - | - |
| 1777915173 | 19.44° C | 44% | 944.6 hPa | 0 mm | - | - | - |
* Rain latest hour (hover to see other rain measurements)
** Current wind speed in m/s (hover to see current wind gust speed)